Location: Caltech
(34.1382°N, 118.1253°W)
Time: 22:12:02
(UTC-07:00)

Cosmos 1833 Rocket - Visible Passes

Search period start: 04 May 2015 00:00
Search period end: 14 May 2015 00:00
Orbit: 834 x 839 km, 71.0° (Epoch: 03 May)

Date Brightness Start Highest point End Pass type
(mag) Time Alt. Az. Time Alt. Az. Time Alt. Az.
04 May 5.2 21:02:32 10° WNW 21:06:06 17° W 21:09:24 10° SW visible
05 May 5.2 20:45:39 10° WNW 20:49:30 18° WSW 20:53:07 10° SW visible
06 May 5.1 20:28:48 10° NW 20:32:54 20° WSW 20:36:48 10° SW visible
07 May 5.1 20:11:58 10° NW 20:16:18 22° WSW 20:20:26 10° SSW visible
